Time,TemperatureF,DewpointF,PressureIn,WindDirection,WindDirectionDegrees,WindSpeedMPH,WindSpeedGustMPH,Humidity,HourlyPrecipIn,Conditions,Clouds,dailyrainin,SoftwareType,DateUTC
2013-07-22 00:01:00,59.0,54.0,29.91,North,0,0.0,1.0,85,0.00,,,0.00,,2013-07-22 07:01:00,
2013-07-22 00:11:00,59.0,54.0,29.91,North,0,0.0,2.0,85,0.00,,,0.00,,2013-07-22 07:11:00,
2013-07-22 00:22:00,59.0,55.0,29.91,North,0,0.0,1.0,86,0.00,,,0.00,,2013-07-22 07:22:00,
2013-07-22 00:33:00,59.0,55.0,29.91,North,0,0.0,1.0,87,0.00,,,0.00,,2013-07-22 07:33:00,
2013-07-22 00:43:00,58.0,54.0,29.92,North,0,0.0,0.0,88,0.00,,,0.00,,2013-07-22 07:43:00,
2013-07-22 00:52:00,58.0,54.0,29.92,North,0,0.0,1.0,88,0.00,,,0.00,,2013-07-22 07:52:00,
2013-07-22 01:01:00,58.0,54.0,29.92,North,0,0.0,1.0,88,0.00,,,0.00,,2013-07-22 08:01:00,
2013-07-22 01:11:00,58.0,54.0,29.92,North,0,0.0,2.0,88,0.00,,,0.00,,2013-07-22 08:11:00,
2013-07-22 01:43:00,58.0,55.0,29.93,SSW,196,2.0,4.0,91,0.00,,,0.00,,2013-07-22 08:43:00,
2013-07-22 01:52:00,57.0,54.0,29.93,SSW,201,1.0,2.0,91,0.00,,,0.00,,2013-07-22 08:52:00,
2013-07-22 02:02:00,57.0,54.0,29.93,SSW,204,3.0,6.0,91,0.00,,,0.00,,2013-07-22 09:02:00,
2013-07-22 02:11:00,57.0,55.0,29.93,South,176,2.0,7.0,92,0.00,,,0.00,,2013-07-22 09:11:00,
2013-07-22 02:22:00,57.0,55.0,29.93,SSW,201,3.0,5.0,92,0.00,,,0.00,,2013-07-22 09:22:00,
2013-07-22 02:33:00,57.0,55.0,29.93,SSW,211,3.0,5.0,92,0.00,,,0.00,,2013-07-22 09:33:00,
2013-07-22 02:42:00,57.0,55.0,29.93,SSW,196,2.0,5.0,93,0.00,,,0.00,,2013-07-22 09:42:00,
2013-07-22 02:52:00,57.0,55.0,29.93,SW,222,3.0,6.0,93,0.00,,,0.00,,2013-07-22 09:52:00,
2013-07-22 03:01:00,57.0,55.0,29.93,SSW,197,1.0,5.0,93,0.00,,,0.00,,2013-07-22 10:01:00,
2013-07-22 03:11:00,57.0,55.0,29.93,South,190,1.0,4.0,93,0.00,,,0.00,,2013-07-22 10:11:00,
2013-07-22 03:22:00,57.0,55.0,29.94,SSW,202,2.0,6.0,94,0.00,,,0.00,,2013-07-22 10:22:00,
2013-07-22 03:32:00,57.0,55.0,29.94,South,191,2.0,5.0,94,0.00,,,0.00,,2013-07-22 10:32:00,
2013-07-22 03:43:00,57.0,55.0,29.94,South,173,1.0,4.0,94,0.00,,,0.00,,2013-07-22 10:43:00,
2013-07-22 03:52:00,56.0,54.0,29.94,North,0,0.0,4.0,94,0.00,,,0.00,,2013-07-22 10:52:00,
2013-07-22 04:01:00,56.0,54.0,29.94,North,0,0.0,4.0,94,0.00,,,0.00,,2013-07-22 11:01:00,
2013-07-22 04:11:00,56.0,54.0,29.94,SSW,196,1.0,5.0,94,0.00,,,0.00,,2013-07-22 11:11:00,
2013-07-22 04:32:00,56.0,55.0,29.95,SSW,204,1.0,7.0,95,0.00,,,0.00,,2013-07-22 11:32:00,
2013-07-22 04:43:00,56.0,55.0,29.95,South,188,2.0,5.0,95,0.00,,,0.00,,2013-07-22 11:43:00,
2013-07-22 04:52:00,56.0,55.0,29.95,SW,217,2.0,5.0,95,0.00,,,0.00,,2013-07-22 11:52:00,
2013-07-22 05:02:00,56.0,55.0,29.95,SSW,197,3.0,6.0,95,0.00,,,0.00,,2013-07-22 12:02:00,
2013-07-22 05:11:00,56.0,55.0,29.95,South,188,2.0,5.0,95,0.00,,,0.00,,2013-07-22 12:11:00,
2013-07-22 05:32:00,55.0,54.0,29.95,SSW,197,3.0,5.0,96,0.00,,,0.00,,2013-07-22 12:32:00,
2013-07-22 05:43:00,55.0,54.0,29.95,South,185,2.0,5.0,96,0.00,,,0.00,,2013-07-22 12:43:00,
2013-07-22 05:52:00,55.0,54.0,29.95,South,191,2.0,6.0,96,0.00,,,0.00,,2013-07-22 12:52:00,
2013-07-22 06:32:00,55.0,54.0,29.97,SW,217,4.0,7.0,96,0.00,,,0.00,,2013-07-22 13:32:00,
2013-07-22 06:43:00,55.0,54.0,29.97,SSW,212,3.0,6.0,96,0.00,,,0.00,,2013-07-22 13:43:00,
2013-07-22 06:53:00,55.0,54.0,29.97,SSW,198,2.0,4.0,96,0.00,,,0.00,,2013-07-22 13:53:00,
2013-07-22 07:01:00,55.0,54.0,29.97,SW,227,1.0,4.0,96,0.00,,,0.00,,2013-07-22 14:01:00,
2013-07-22 07:32:00,55.0,54.0,29.98,South,186,3.0,6.0,96,0.00,,,0.00,,2013-07-22 14:32:00,
2013-07-22 07:53:00,55.0,54.0,29.98,SSW,206,2.0,6.0,97,0.00,,,0.00,,2013-07-22 14:53:00,
2013-07-22 08:01:00,55.0,54.0,29.99,SW,221,2.0,6.0,97,0.00,,,0.00,,2013-07-22 15:01:00,
2013-07-22 08:32:00,55.0,54.0,30.00,North,0,0.0,4.0,97,0.00,,,0.00,,2013-07-22 15:32:00,
2013-07-22 08:42:00,55.0,54.0,30.00,SSW,210,1.0,4.0,97,0.00,,,0.00,,2013-07-22 15:42:00,
2013-07-22 08:52:00,55.0,54.0,30.00,South,188,3.0,7.0,97,0.00,,,0.00,,2013-07-22 15:52:00,
2013-07-22 09:21:00,55.0,54.0,30.01,SSW,193,2.0,5.0,97,0.00,,,0.00,,2013-07-22 16:21:00,
2013-07-22 09:32:00,56.0,55.0,30.01,South,185,2.0,6.0,96,0.00,,,0.00,,2013-07-22 16:32:00,
2013-07-22 09:52:00,56.0,55.0,30.01,South,177,3.0,7.0,96,0.00,,,0.00,,2013-07-22 16:52:00,
2013-07-22 10:11:00,57.0,56.0,30.02,SW,236,2.0,7.0,95,0.00,,,0.00,,2013-07-22 17:11:00,
2013-07-22 10:23:00,58.0,56.0,30.02,SW,225,3.0,7.0,92,0.00,,,0.00,,2013-07-22 17:23:00,
2013-07-22 10:42:00,59.0,55.0,30.02,SSW,202,4.0,7.0,87,0.00,,,0.00,,2013-07-22 17:42:00,
2013-07-22 10:52:00,60.0,55.0,30.02,WSW,240,2.0,8.0,85,0.00,,,0.00,,2013-07-22 17:52:00,
2013-07-22 11:01:00,61.0,55.0,30.02,SW,224,4.0,6.0,80,0.00,,,0.00,,2013-07-22 18:01:00,
2013-07-22 11:12:00,61.0,55.0,30.03,SW,214,3.0,9.0,80,0.00,,,0.00,,2013-07-22 18:12:00,
2013-07-22 11:21:00,61.0,54.0,30.03,WSW,245,3.0,9.0,79,0.00,,,0.00,,2013-07-22 18:21:00,
2013-07-22 11:32:00,62.0,56.0,30.03,South,184,1.0,5.0,80,0.00,,,0.00,,2013-07-22 18:32:00,
2013-07-22 11:44:00,62.0,55.0,30.03,SW,224,3.0,7.0,78,0.00,,,0.00,,2013-07-22 18:44:00,
2013-07-22 12:01:00,62.0,55.0,30.03,West,264,5.0,7.0,78,0.00,,,0.00,,2013-07-22 19:01:00,
2013-07-22 12:11:00,63.0,55.0,30.03,WSW,239,3.0,5.0,76,0.00,,,0.00,,2013-07-22 19:11:00,
2013-07-22 12:21:00,63.0,55.0,30.03,WSW,239,3.0,5.0,76,0.00,,,0.00,,2013-07-22 19:21:00,
2013-07-22 12:43:00,66.0,56.0,30.03,West,268,3.0,7.0,70,0.00,,,0.00,,2013-07-22 19:43:00,
2013-07-22 13:32:00,67.0,56.0,30.03,SSW,211,2.0,7.0,67,0.00,,,0.00,,2013-07-22 20:32:00,
2013-07-22 13:43:00,68.0,56.0,30.03,SSW,212,3.0,10.0,65,0.00,,,0.00,,2013-07-22 20:43:00,
2013-07-22 14:32:00,71.0,57.0,30.02,SW,226,2.0,5.0,61,0.00,,,0.00,,2013-07-22 21:32:00,
2013-07-22 14:43:00,72.0,57.0,30.01,North,0,0.0,8.0,59,0.00,,,0.00,,2013-07-22 21:43:00,
2013-07-22 15:22:00,73.0,57.0,30.01,SW,220,3.0,8.0,57,0.00,,,0.00,,2013-07-22 22:22:00,
2013-07-22 15:52:00,74.0,57.0,30.01,SW,215,1.0,4.0,56,0.00,,,0.00,,2013-07-22 22:52:00,
2013-07-22 16:22:00,76.0,58.0,30.00,North,0,0.0,5.0,53,0.00,,,0.00,,2013-07-22 23:22:00,
2013-07-22 16:32:00,76.0,58.0,30.00,SW,236,2.0,5.0,53,0.00,,,0.00,,2013-07-22 23:32:00,
2013-07-22 16:42:00,76.0,57.0,30.00,West,263,1.0,5.0,52,0.00,,,0.00,,2013-07-22 23:42:00,
2013-07-22 16:52:00,77.0,57.0,29.99,WSW,250,3.0,5.0,51,0.00,,,0.00,,2013-07-22 23:52:00,
2013-07-22 17:01:00,77.0,57.0,29.99,SW,231,3.0,6.0,50,0.00,,,0.00,,2013-07-23 00:01:00,
2013-07-22 17:11:00,77.0,57.0,29.99,SW,231,3.0,6.0,50,0.00,,,0.00,,2013-07-23 00:11:00,
2013-07-22 17:43:00,78.0,57.0,29.98,North,0,0.0,5.0,49,0.00,,,0.00,,2013-07-23 00:43:00,
2013-07-22 18:32:00,78.0,58.0,29.97,North,0,0.0,3.0,51,0.00,,,0.00,,2013-07-23 01:32:00,
2013-07-22 18:53:00,77.0,57.0,29.97,North,0,0.0,1.0,51,0.00,,,0.00,,2013-07-23 01:53:00,
2013-07-22 19:01:00,77.0,57.0,29.97,North,0,0.0,1.0,51,0.00,,,0.00,,2013-07-23 02:01:00,
2013-07-22 19:22:00,75.0,57.0,29.97,North,0,0.0,2.0,54,0.00,,,0.00,,2013-07-23 02:22:00,
2013-07-22 19:33:00,76.0,57.0,29.97,North,350,1.0,3.0,52,0.00,,,0.00,,2013-07-23 02:33:00,
2013-07-22 19:43:00,75.0,58.0,29.97,NW,321,1.0,5.0,56,0.00,,,0.00,,2013-07-23 02:43:00,
2013-07-22 20:01:00,73.0,56.0,29.97,North,0,0.0,4.0,56,0.00,,,0.00,,2013-07-23 03:01:00,
2013-07-22 20:11:00,72.0,56.0,29.97,North,0,0.0,5.0,58,0.00,,,0.00,,2013-07-23 03:11:00,
2013-07-22 20:33:00,70.0,56.0,29.97,North,349,2.0,5.0,62,0.00,,,0.00,,2013-07-23 03:33:00,
2013-07-22 20:43:00,70.0,56.0,29.97,North,349,2.0,5.0,62,0.00,,,0.00,,2013-07-23 03:43:00,
2013-07-22 20:52:00,69.0,58.0,29.97,NNW,343,2.0,6.0,67,0.00,,,0.00,,2013-07-23 03:52:00,
2013-07-22 21:01:00,68.0,57.0,29.97,North,5,4.0,7.0,69,0.00,,,0.00,,2013-07-23 04:01:00,
2013-07-22 21:11:00,68.0,57.0,29.97,North,5,4.0,7.0,69,0.00,,,0.00,,2013-07-23 04:11:00,
2013-07-22 21:21:00,67.0,57.0,29.98,North,358,2.0,6.0,70,0.00,,,0.00,,2013-07-23 04:21:00,
2013-07-22 21:42:00,65.0,57.0,29.98,North,6,2.0,6.0,75,0.00,,,0.00,,2013-07-23 04:42:00,
2013-07-22 21:53:00,65.0,57.0,29.98,North,6,2.0,6.0,75,0.00,,,0.00,,2013-07-23 04:53:00,
2013-07-22 22:02:00,65.0,57.0,29.98,North,352,3.0,6.0,75,0.00,,,0.00,,2013-07-23 05:02:00,
2013-07-22 22:11:00,65.0,57.0,29.99,North,8,1.0,4.0,75,0.00,,,0.00,,2013-07-23 05:11:00,
2013-07-22 22:22:00,65.0,57.0,29.99,North,8,1.0,4.0,75,0.00,,,0.00,,2013-07-23 05:22:00,
2013-07-22 22:43:00,63.0,56.0,30.00,North,354,4.0,12.0,78,0.00,,,0.00,,2013-07-23 05:43:00,
2013-07-22 22:52:00,63.0,56.0,30.00,North,354,4.0,12.0,78,0.00,,,0.00,,2013-07-23 05:52:00,
2013-07-22 23:01:00,62.0,55.0,30.00,NNW,329,3.0,11.0,79,0.00,,,0.00,,2013-07-23 06:01:00,
2013-07-22 23:42:00,61.0,55.0,30.00,NW,324,5.0,7.0,82,0.00,,,0.00,,2013-07-23 06:42:00,